Torna al catalogo

FGN-100-D1

AttivoComunicazioniSSO
NORAD 62655·PAYLOAD·🇹🇷 Turkey
Questo nome del satellite non è ancora stato confermato da fonti ufficiali.

Lanciato Jan 14, 2025 da Vandenberg Space Force Base

Loading…

Prossimi Passaggi (prossime 24 ore)

TLE

AggiornatoSource: Space-Track

Epoca: Sep 14, 2026, 11:47 UTC

1 62655U 25009AY  26257.49127796  .00024698  00000-0  51373-3 0  9998
2 62655  97.3992 345.4191 0000346 325.8677  34.2550 15.45627934 92975

Traccia FGN-100-D1 in tempo reale con AllMySat

Download on the App Store